Vorticity
3 5 5 5 5 6 9 6 5 8 6 5 6 6 7 8 8 6 5 5 5 6 8 8 9 8 5 5 5 5 6 5 4 5 5 5 6 6 6 7 7 7 7 8 6 5 6 6 6 8 8 8 9 9 9 8 7 7 7 6 6 7 6
3 2 4 4 4 6 7 5 5 8 7 6 6 5 7 7 7 7 5 5 5 4 6 7 7 8 7 6 6 6 8 7 6 6 5 5 5 4 5 7 7 7 8 8 7 7 8 7 5 5 6 6 7 8 9 10 8 8 7 7 7 7 7
4 2 4 2 4 5 7 6 4 7 8 6 6 4 6 6 5 6 6 5 6 5 4 6 6 7 7 7 7 7 8 8 7 7 6 5 5 4 4 6 7 8 7 4 6 7 8 8 6 5 5 5 7 8 8 8 8 8 8 7 8 8 8
7 5 4 1 4 4 6 7 3 4 6 6 6 5 5 6 4 5 6 4 5 5 4 4 4 5 5 5 6 6 7 7 7 6 6 5 5 4 4 4 5 7 7 5 6 6 6 7 6 6 6 6 7 7 7 6 6 8 9 8 8 9 9
10 10 5 2 3 4 5 7 5 4 4 4 6 5 4 6 5 3 5 5 4 5 5 5 5 4 5 5 5 5 5 7 7 5 5 5 5 6 5 4 4 5 5 5 6 6 5 5 6 6 6 5 6 7 7 7 6 7 8 9 8 9 8
11 11 10 7 4 6 6 6 6 5 5 5 4 5 5 4 5 5 4 5 5 5 5 5 5 5 5 5 5 5 5 5 6 5 4 5 5 6 6 5 4 4 4 4 5 5 4 4 4 5 5 4 6 8 7 7 7 6 7 8 8 8 8
12 10 12 12 6 8 9 6 7 4 4 6 3 4 6 4 6 6 4 5 6 6 6 6 6 4 4 5 4 5 5 4 5 4 5 5 5 5 5 5 5 4 5 5 5 5 4 4 4 4 5 5 4 5 6 6 6 6 6 6 6 6 6
7 7 9 13 8 8 10 8 10 7 5 7 5 4 6 6 6 5 4 5 5 6 7 7 7 5 4 5 4 4 4 4 5 5 5 6 6 6 5 5 5 5 6 7 8 7 6 6 6 6 6 6 5 5 4 5 4 4 5 6 6 6 6
5 5 4 9 8 6 7 6 9 11 10 11 10 7 6 6 6 4 4 4 3 5 7 7 8 6 5 4 4 4 4 4 5 5 5 5 5 6 6 5 6 5 6 8 8 8 9 8 8 7 8 8 7 6 5 4 4 4 4 5 5 6 6
5 6 2 5 7 6 6 4 4 7 9 12 12 10 10 10 9 7 6 5 4 4 5 7 7 5 4 4 4 4 3 4 5 4 4 5 4 5 4 4 5 4 5 6 6 6 7 8 8 8 10 11 9 8 7 6 5 6 6 6 6 5 5
12 5 3 4 5 4 5 5 4 2 3 6 9 8 8 11 14 14 12 10 11 11 10 11 10 7 6 5 5 5 3 3 3 4 4 4 3 4 4 4 4 3 3 3 3 4 4 4 5 5 6 8 10 10 10 10 9 8 8 8 7 6 5
26 6 3 4 5 6 5 4 4 4 3 2 4 6 6 8 12 15 13 10 9 12 14 15 15 13 10 7 6 6 6 5 3 2 3 3 3 3 3 3 4 4 4 4 3 4 5 4 3 3 3 3 5 6 7 8 9 9 10 11 10 10 8
20 6 5 4 3 4 3 4 2 1 3 3 2 3 3 4 8 8 7 7 5 4 7 11 14 15 14 12 10 8 8 8 6 4 3 3 4 4 4 5 5 5 6 6 6 6 6 6 6 6 6 4 4 4 4 4 5 5 7 9 11 12 11
14 16 21 20 17 8 0 2 4 1 0 1 -0 1 1 1 4 6 4 3 2 2 1 3 6 9 12 14 14 13 12 11 9 7 6 5 5 5 6 7 7 8 8 7 6 6 6 6 7 7 8 7 6 6 5 5 5 4 4 5 7 9 10
10 12 21 32 37 29 11 0 1 1 0 2 5 8 10 5 -1 0 4 3 1 1 1 2 4 4 6 9 12 13 14 14 12 10 8 8 7 7 7 8 7 8 8 7 6 6 6 5 6 7 7 8 8 7 7 7 5 5 6 6 6 6 7
16 12 13 22 32 38 32 17 10 11 9 10 10 10 18 24 12 -2 -2 2 2 1 1 2 3 2 2 4 6 6 9 13 14 12 10 9 8 8 7 7 9 9 9 10 8 7 7 6 6 8 8 9 9 9 10 8 6 6 6 6 7 7 7
22 21 16 14 13 17 22 19 14 14 13 11 10 7 13 27 28 14 4 1 0 2 4 3 2 2 2 3 3 1 4 10 12 12 12 11 10 12 11 9 10 11 10 11 11 9 10 9 9 9 9 9 9 9 10 10 8 7 7 7 9 10 10
13 20 21 22 19 16 18 21 22 23 22 17 15 15 11 11 18 21 19 12 4 -1 1 3 3 3 4 4 4 4 3 6 11 11 9 10 10 11 13 12 10 11 10 10 11 11 11 10 10 10 9 8 9 9 10 11 10 9 8 9 10 12 13
1 6 11 14 16 15 12 15 20 25 28 24 17 17 17 15 14 15 20 24 20 11 6 2 -0 6 12 7 1 5 6 2 8 12 7 7 11 10 12 12 9 10 10 9 9 8 8 9 9 8 7 7 7 9 10 12 12 11 10 8 9 10 11
-2 -4 0 1 0 0 -1 0 6 9 10 12 12 12 15 19 19 15 18 23 23 21 19 11 0 -0 11 10 -2 0 6 -0 1 10 9 4 7 10 9 7 7 9 9 7 8 7 6 8 8 7 7 8 7 7 8 10 11 12 12 10 9 8 8
4 -0 1 3 0 1 3 4 6 7 4 5 9 12 16 21 24 22 20 20 21 20 18 18 13 3 4 12 6 0 7 4 -2 4 8 5 6 6 3 4 6 6 4 3 5 6 6 6 5 5 6 7 7 5 4 6 7 8 9 9 8 7 7
7 6 3 5 6 6 7 4 2 5 8 7 7 9 11 18 26 27 23 23 28 30 18 7 11 10 6 13 14 10 16 14 3 1 4 7 10 6 3 6 8 5 3 1 -0 2 4 3 3 3 2 2 1 1 1 2 3 5 6 7 7 6 5
6 7 6 4 2 2 3 2 2 5 10 12 13 11 8 10 18 24 24 21 26 40 40 22 15 19 19 16 15 15 20 17 8 7 8 9 13 10 3 3 6 6 6 3 1 4 5 4 5 6 4 1 -1 0 1 -0 -0 1 2 3 4 4 4
4 4 5 4 4 5 3 0 -1 -1 -2 -2 0 3 5 7 8 10 19 27 29 40 51 44 33 30 27 21 17 17 22 20 8 3 3 4 5 2 -3 -0 5 9 9 6 5 8 9 10 12 12 10 8 6 7 8 6 4 3 2 4 5 4 4
3 1 0 4 9 13 16 16 14 9 6 4 2 2 4 5 5 3 6 10 9 12 21 26 28 28 24 26 29 29 33 35 23 12 14 18 14 7 6 10 11 11 12 10 7 9 12 14 14 14 14 12 12 14 14 12 13 12 8 5 3 2 3
3 3 0 -1 -3 -1 9 17 16 14 19 20 15 11 8 5 7 13 14 10 5 7 10 8 13 19 16 13 16 17 18 21 20 17 20 26 25 19 15 13 9 8 10 9 8 10 12 12 10 10 10 10 12 15 16 16 18 21 19 13 8 7 8
5 9 9 4 -2 -4 -2 -4 -9 -9 -2 0 -3 0 6 6 3 1 3 6 10 15 15 11 12 14 4 -9 -6 5 11 11 12 13 11 11 14 12 8 6 5 6 9 11 12 11 9 8 8 8 9 11 9 8 9 14 16 18 20 21 21 22 20
10 13 16 13 9 8 5 0 -2 0 3 2 3 5 8 10 8 -0 -4 2 8 11 16 19 18 13 4 -0 6 15 17 13 11 12 10 10 10 9 8 9 9 9 10 10 10 7 5 6 8 6 6 10 10 6 6 9 9 7 9 11 15 19 21
16 15 16 15 13 15 18 20 22 23 18 14 15 15 13 13 12 8 9 13 12 9 8 6 5 5 7 10 12 11 11 11 11 10 11 12 12 10 10 10 9 9 11 10 8 7 9 10 9 7 6 8 9 9 7 5 5 7 8 8 8 9 12
10 11 16 16 9 6 13 21 23 24 23 18 14 14 15 19 19 15 12 9 5 4 3 -1 -0 6 9 9 8 7 8 10 9 8 10 10 8 6 6 7 7 7 8 8 7 6 7 6 5 5 6 5 6 7 7 7 8 9 9 9 8 7 8
-12 -3 13 19 12 4 5 10 10 12 20 28 28 23 21 24 27 25 21 14 7 6 6 2 3 7 8 7 6 6 5 4 3 4 5 4 1 -0 2 6 8 7 7 7 7 6 5 5 4 3 3 3 3 4 4 4 5 6 7 9 10 9 10
-15 1 15 21 19 12 8 10 9 6 10 19 21 17 11 8 8 8 9 9 8 7 5 5 5 6 6 5 4 3 4 4 5 6 5 4 4 4 5 6 5 4 3 4 5 6 7 7 7 6 6 6 5 5 5 5 5 5 5 6 7 8 9
-6 11 20 20 20 18 12 12 14 11 10 11 10 7 5 3 2 3 6 7 8 7 7 6 5 4 4 3 4 4 4 3 4 6 7 7 7 7 6 6 4 3 3 3 5 6 6 6 7 7 7 8 7 6 7 6 6 8 8 8 8 7 7
1 15 21 15 16 20 16 11 11 10 9 9 10 10 11 10 9 8 8 8 9 9 8 8 6 6 6 5 5 6 5 5 5 5 5 6 7 7 7 7 6 5 5 6 6 6 5 6 6 6 7 8 9 8 9 8 7 7 7 8 9 8 7
11 21 21 13 11 15 13 10 10 10 8 7 6 5 6 6 7 6 5 5 5 5 5 6 6 6 6 6 6 6 5 5 4 4 4 4 4 5 6 6 6 6 6 6 6 6 6 5 5 6 5 6 6 5 4 4 3 2 2 2 4 5 6
19 21 16 10 9 8 6 7 8 8 8 8 7 5 4 3 3 3 2 2 2 2 3 3 3 4 5 6 7 7 7 7 6 5 6 5 5 5 6 5 5 5 6 6 6 6 6 5 5 5 4 3 3 1 -1 -1 -1 -1 0 1 2 3 3
20 18 11 7 7 5 5 6 6 6 8 9 8 8 7 6 5 5 4 5 5 5 5 5 4 4 4 3 3 4 5 6 6 6 6 5 6 7 6 6 6 6 6 6 6 6 6 5 5 5 4 3 3 2 1 3 3 2 3 3 3 4 4
14 11 8 7 7 6 5 5 4 5 7 7 9 10 10 9 9 8 7 7 7 6 7 8 9 9 9 9 8 7 6 6 5 6 6 7 7 7 8 8 8 7 6 7 7 7 7 7 6 6 6 6 6 7 6 6 6 6 7 7 6 5 5
Height
5890 5893 5896 5899 5901 5904 5905 5907 5908 5910 5911 5912 5913 5915 5917 5919 5920 5921 5922 5924 5925 5927 5928 5929 5930 5932 5933 5934 5934 5935 5936 5936 5937 5938 5938 5939 5940 5940 5941 5941 5942 5943 5943 5943 5943 5943 5943 5944 5944 5945 5945 5945 5946 5947 5947 5948 5948 5948 5949 5949 5950 5950 5950
5887 5890 5893 5896 5899 5902 5903 5905 5906 5908 5910 5911 5912 5914 5915 5917 5919 5920 5921 5923 5924 5925 5927 5928 5929 5931 5932 5933 5934 5935 5935 5936 5937 5938 5938 5939 5939 5940 5941 5941 5942 5942 5943 5943 5943 5943 5944 5944 5944 5944 5945 5945 5946 5946 5947 5947 5948 5948 5949 5949 5949 5950 5950
5885 5888 5891 5894 5897 5899 5901 5903 5905 5907 5908 5910 5911 5912 5913 5915 5917 5918 5920 5922 5923 5924 5926 5927 5928 5930 5931 5932 5933 5934 5935 5936 5937 5937 5938 5939 5939 5940 5940 5941 5942 5942 5942 5943 5943 5943 5944 5944 5944 5945 5945 5945 5945 5946 5947 5947 5947 5948 5948 5948 5949 5950 5950
5885 5887 5889 5892 5894 5896 5898 5900 5903 5904 5906 5908 5910 5911 5912 5913 5914 5916 5918 5920 5922 5923 5924 5925 5926 5928 5929 5930 5932 5933 5934 5935 5936 5936 5937 5938 5938 5939 5940 5940 5941 5941 5942 5942 5942 5943 5943 5944 5944 5944 5945 5945 5945 5946 5946 5947 5947 5948 5948 5948 5948 5949 5949
5884 5886 5888 5890 5892 5894 5896 5899 5901 5903 5905 5906 5908 5909 5910 5911 5912 5914 5916 5918 5920 5921 5923 5924 5925 5927 5928 5929 5930 5931 5933 5933 5934 5935 5936 5937 5937 5938 5939 5939 5940 5940 5941 5941 5942 5942 5943 5943 5943 5944 5944 5945 5945 5945 5946 5946 5947 5948 5948 5948 5948 5948 5949
5884 5886 5887 5889 5891 5893 5896 5898 5900 5902 5903 5904 5906 5907 5908 5910 5911 5913 5914 5916 5918 5919 5921 5923 5925 5926 5927 5928 5929 5930 5931 5932 5933 5933 5934 5935 5936 5937 5938 5938 5939 5939 5940 5940 5941 5941 5942 5942 5943 5943 5944 5944 5945 5945 5945 5946 5947 5947 5948 5948 5948 5948 5948
5882 5885 5887 5888 5890 5892 5894 5896 5898 5899 5901 5902 5903 5904 5906 5908 5910 5911 5912 5914 5916 5918 5920 5921 5923 5923 5924 5926 5927 5928 5929 5930 5931 5932 5933 5933 5934 5935 5936 5937 5938 5938 5939 5939 5939 5940 5941 5941 5942 5942 5943 5943 5944 5944 5945 5946 5946 5947 5947 5947 5947 5947 5947
5879 5882 5885 5887 5888 5890 5892 5894 5896 5897 5898 5900 5901 5902 5904 5906 5907 5909 5910 5912 5914 5915 5917 5919 5920 5921 5922 5923 5925 5926 5927 5929 5930 5931 5932 5932 5933 5934 5935 5936 5937 5937 5938 5938 5939 5939 5940 5940 5941 5941 5942 5942 5943 5944 5944 5945 5945 5946 5946 5947 5947 5947 5947
5876 5879 5882 5884 5886 5888 5890 5892 5894 5896 5897 5898 5900 5902 5903 5905 5906 5907 5908 5909 5911 5913 5915 5916 5917 5918 5920 5921 5923 5924 5925 5927 5928 5929 5930 5931 5932 5933 5934 5935 5936 5936 5937 5937 5938 5938 5939 5939 5940 5940 5941 5941 5942 5943 5943 5943 5944 5944 5945 5945 5946 5946 5946
5873 5875 5879 5882 5884 5887 5889 5890 5892 5895 5896 5898 5899 5901 5902 5904 5906 5907 5907 5908 5909 5911 5912 5913 5915 5916 5918 5919 5920 5922 5924 5925 5926 5928 5929 5929 5930 5931 5932 5933 5934 5935 5935 5936 5937 5937 5938 5938 5939 5939 5940 5940 5941 5941 5942 5942 5942 5943 5943 5944 5944 5944 5945
5869 5872 5876 5880 5883 5884 5886 5888 5891 5893 5894 5896 5897 5899 5901 5902 5904 5906 5907 5909 5910 5910 5910 5911 5912 5914 5916 5917 5918 5920 5921 5923 5924 5925 5926 5927 5928 5929 5930 5931 5932 5933 5934 5935 5936 5936 5937 5937 5937 5938 5938 5939 5939 5940 5940 5940 5941 5941 5941 5942 5942 5943 5943
5865 5870 5874 5877 5880 5882 5884 5886 5888 5890 5891 5893 5895 5897 5898 5900 5902 5904 5906 5907 5908 5909 5910 5911 5912 5912 5913 5914 5916 5917 5919 5920 5921 5923 5923 5924 5925 5927 5928 5930 5930 5931 5932 5933 5934 5935 5935 5935 5936 5936 5936 5937 5937 5938 5938 5939 5939 5939 5940 5940 5940 5941 5941
5864 5868 5871 5874 5876 5878 5880 5882 5884 5886 5888 5890 5892 5894 5896 5898 5900 5902 5904 5905 5905 5907 5909 5910 5910 5911 5911 5912 5913 5915 5917 5919 5920 5921 5921 5922 5923 5925 5926 5928 5929 5929 5930 5931 5932 5932 5933 5933 5933 5934 5934 5934 5935 5935 5936 5937 5937 5937 5938 5938 5939 5939 5940
5863 5865 5868 5870 5872 5875 5877 5879 5881 5883 5885 5887 5889 5892 5894 5896 5898 5900 5901 5902 5902 5904 5905 5906 5907 5909 5909 5910 5911 5913 5914 5916 5918 5919 5920 5921 5922 5923 5924 5926 5926 5927 5928 5929 5929 5930 5930 5930 5931 5931 5932 5932 5933 5933 5934 5934 5935 5935 5935 5936 5936 5937 5937
5861 5863 5864 5866 5868 5871 5873 5876 5878 5881 5883 5885 5887 5890 5891 5893 5895 5897 5898 5899 5900 5901 5901 5902 5904 5906 5907 5908 5910 5910 5911 5912 5914 5916 5917 5918 5920 5921 5922 5923 5924 5925 5926 5926 5927 5927 5927 5928 5928 5929 5929 5930 5930 5931 5931 5932 5932 5932 5933 5933 5934 5934 5935
5860 5861 5862 5863 5865 5868 5871 5874 5877 5879 5882 5884 5885 5887 5888 5890 5891 5893 5894 5896 5896 5898 5898 5899 5900 5902 5904 5906 5907 5907 5908 5909 5910 5912 5914 5915 5917 5918 5919 5920 5921 5922 5923 5924 5924 5925 5925 5925 5926 5926 5927 5927 5927 5928 5928 5928 5929 5929 5930 5930 5931 5932 5932
5858 5859 5860 5862 5864 5866 5869 5872 5874 5877 5879 5880 5882 5883 5884 5886 5887 5888 5889 5891 5893 5894 5895 5895 5897 5898 5900 5902 5904 5905 5905 5906 5907 5909 5910 5912 5913 5914 5916 5917 5918 5919 5920 5921 5922 5923 5923 5923 5924 5924 5924 5924 5924 5925 5925 5925 5926 5926 5927 5927 5928 5929 5930
5857 5858 5859 5860 5862 5864 5867 5869 5871 5872 5874 5876 5877 5879 5880 5881 5883 5884 5885 5887 5889 5890 5890 5892 5894 5896 5898 5901 5902 5902 5903 5904 5905 5906 5907 5908 5910 5911 5913 5915 5916 5916 5917 5918 5919 5920 5921 5921 5921 5921 5921 5921 5922 5922 5922 5922 5923 5923 5924 5925 5925 5926 5927
5856 5857 5858 5859 5861 5863 5865 5866 5868 5869 5871 5872 5873 5875 5876 5878 5879 5880 5881 5882 5883 5885 5887 5888 5891 5894 5897 5898 5897 5898 5900 5901 5902 5903 5905 5906 5907 5909 5911 5912 5913 5914 5915 5916 5917 5918 5919 5919 5919 5919 5920 5920 5920 5920 5920 5920 5921 5921 5921 5922 5923 5924 5924
5855 5857 5858 5859 5861 5862 5863 5864 5866 5867 5868 5869 5871 5872 5873 5874 5875 5875 5876 5877 5878 5881 5883 5884 5886 5890 5893 5892 5891 5893 5896 5897 5899 5900 5902 5904 5905 5907 5909 5910 5911 5912 5913 5914 5915 5916 5917 5917 5917 5917 5917 5917 5917 5917 5917 5918 5918 5918 5919 5920 5921 5921 5922
5854 5856 5857 5859 5861 5861 5862 5863 5864 5865 5866 5867 5868 5869 5870 5871 5871 5871 5872 5873 5874 5876 5878 5879 5880 5883 5887 5887 5887 5889 5892 5894 5896 5898 5899 5901 5903 5904 5906 5907 5908 5909 5910 5911 5913 5914 5914 5914 5913 5914 5914 5915 5915 5915 5915 5915 5915 5915 5916 5917 5917 5918 5919
5853 5854 5856 5858 5859 5860 5861 5862 5863 5864 5864 5865 5866 5868 5868 5869 5869 5869 5869 5868 5870 5871 5873 5875 5877 5879 5881 5882 5883 5885 5888 5890 5893 5894 5896 5898 5900 5902 5903 5904 5905 5905 5905 5906 5908 5909 5910 5909 5908 5909 5910 5912 5913 5912 5912 5912 5912 5913 5913 5914 5914 5915 5915
5852 5853 5855 5856 5857 5858 5859 5860 5861 5862 5863 5863 5864 5865 5867 5868 5867 5867 5866 5865 5866 5867 5869 5871 5874 5876 5877 5878 5879 5882 5884 5886 5888 5890 5892 5894 5896 5898 5900 5901 5901 5901 5901 5902 5904 5905 5906 5906 5905 5905 5907 5908 5909 5908 5908 5909 5909 5910 5910 5911 5912 5912 5913
5850 5851 5852 5854 5855 5856 5856 5857 5858 5860 5861 5861 5862 5863 5865 5866 5865 5864 5865 5865 5865 5866 5866 5868 5870 5872 5874 5875 5876 5878 5881 5883 5885 5886 5888 5891 5893 5894 5895 5896 5896 5897 5898 5900 5901 5902 5903 5903 5903 5902 5903 5904 5904 5904 5904 5905 5906 5907 5907 5908 5909 5909 5909
5848 5849 5850 5852 5852 5853 5853 5853 5854 5856 5857 5858 5859 5861 5863 5865 5865 5864 5865 5865 5865 5865 5866 5867 5869 5870 5871 5872 5873 5875 5877 5879 5882 5884 5886 5888 5890 5890 5891 5891 5892 5893 5895 5896 5897 5897 5898 5899 5899 5899 5899 5899 5900 5900 5900 5901 5902 5903 5903 5904 5905 5905 5906
5845 5847 5849 5850 5850 5850 5851 5851 5852 5853 5854 5856 5857 5859 5861 5863 5865 5865 5863 5862 5862 5863 5864 5865 5867 5868 5869 5870 5871 5873 5875 5877 5879 5881 5882 5884 5885 5886 5887 5888 5889 5890 5891 5892 5893 5893 5894 5895 5895 5895 5896 5896 5896 5896 5896 5896 5896 5897 5898 5899 5900 5901 5901
5843 5845 5846 5847 5847 5847 5848 5849 5850 5852 5853 5854 5855 5856 5858 5861 5862 5862 5861 5860 5860 5861 5861 5862 5864 5866 5867 5869 5870 5872 5874 5875 5876 5877 5879 5880 5881 5883 5884 5885 5886 5887 5888 5889 5889 5890 5891 5891 5891 5892 5892 5892 5892 5892 5892 5892 5892 5893 5894 5894 5895 5895 5896
5841 5843 5844 5844 5844 5845 5846 5847 5848 5850 5851 5851 5853 5854 5855 5857 5858 5858 5858 5859 5859 5860 5860 5861 5864 5865 5866 5867 5869 5870 5872 5873 5874 5875 5876 5877 5878 5879 5881 5882 5883 5884 5884 5885 5886 5887 5888 5888 5887 5888 5888 5888 5887 5888 5888 5889 5889 5889 5890 5890 5890 5890 5890
5839 5841 5842 5842 5842 5843 5844 5844 5845 5847 5848 5848 5850 5851 5852 5853 5854 5855 5856 5857 5858 5858 5859 5860 5862 5864 5864 5865 5867 5869 5870 5871 5871 5872 5873 5874 5875 5876 5877 5878 5879 5881 5881 5882 5882 5883 5883 5883 5884 5885 5885 5884 5884 5885 5885 5885 5885 5885 5885 5885 5885 5885 5885
5837 5839 5840 5841 5841 5841 5841 5842 5843 5845 5845 5845 5846 5847 5848 5850 5851 5852 5854 5855 5855 5856 5857 5858 5859 5860 5862 5863 5865 5865 5866 5867 5868 5869 5870 5871 5872 5874 5874 5875 5876 5877 5878 5878 5878 5878 5878 5879 5880 5881 5881 5881 5881 5881 5881 5881 5881 5881 5881 5881 5881 5881 5881
5834 5836 5838 5839 5839 5839 5839 5840 5842 5843 5843 5843 5844 5844 5845 5847 5848 5849 5851 5852 5853 5854 5855 5855 5856 5857 5859 5860 5861 5862 5863 5864 5865 5866 5867 5869 5870 5871 5871 5871 5872 5873 5873 5874 5875 5875 5875 5875 5876 5876 5877 5877 5877 5877 5877 5877 5877 5877 5877 5877 5877 5877 5877
5832 5833 5834 5835 5836 5837 5837 5838 5839 5840 5841 5842 5842 5843 5843 5844 5845 5847 5848 5849 5851 5851 5852 5853 5854 5855 5856 5858 5859 5860 5861 5862 5863 5864 5865 5866 5867 5867 5868 5868 5869 5869 5869 5870 5870 5871 5871 5872 5872 5872 5872 5872 5872 5872 5872 5872 5872 5873 5873 5873 5873 5873 5873
5830 5831 5832 5833 5833 5834 5835 5835 5836 5837 5838 5839 5840 5841 5841 5842 5843 5844 5845 5847 5848 5849 5850 5850 5851 5852 5853 5855 5856 5857 5858 5859 5860 5861 5862 5863 5863 5864 5865 5865 5865 5866 5866 5866 5866 5866 5867 5867 5867 5867 5867 5868 5868 5868 5867 5867 5867 5867 5868 5868 5868 5868 5868
5828 5829 5829 5830 5831 5832 5832 5833 5833 5834 5835 5836 5837 5838 5839 5840 5840 5841 5842 5843 5845 5846 5847 5848 5849 5849 5850 5851 5852 5853 5855 5856 5857 5857 5858 5859 5859 5860 5860 5861 5861 5861 5861 5861 5861 5861 5862 5862 5862 5862 5862 5862 5863 5863 5863 5863 5863 5863 5863 5863 5863 5863 5863
5824 5825 5826 5827 5827 5828 5829 5830 5830 5831 5832 5833 5834 5835 5835 5836 5837 5838 5839 5840 5841 5842 5843 5844 5845 5846 5847 5847 5848 5849 5850 5851 5852 5853 5853 5854 5854 5855 5855 5856 5856 5856 5856 5856 5856 5856 5856 5856 5856 5857 5857 5857 5857 5857 5857 5857 5858 5858 5858 5858 5858 5858 5858
5820 5821 5822 5823 5823 5824 5825 5826 5827 5828 5829 5830 5831 5832 5833 5833 5834 5835 5835 5836 5837 5838 5839 5840 5841 5842 5842 5843 5844 5844 5845 5846 5847 5847 5848 5848 5849 5849 5849 5850 5850 5850 5850 5850 5850 5850 5850 5850 5850 5851 5851 5851 5851 5852 5852 5852 5852 5852 5852 5852 5852 5852 5852
5816 5817 5818 5819 5820 5821 5821 5822 5824 5825 5826 5828 5829 5830 5830 5831 5831 5831 5832 5832 5833 5834 5834 5835 5836 5837 5837 5838 5838 5839 5840 5841 5841 5842 5842 5843 5843 5843 5843 5843 5844 5844 5844 5844 5844 5844 5844 5844 5844 5844 5844 5845 5845 5845 5845 5846 5846 5846 5845 5845 5845 5846 5846
5813 5814 5815 5816 5817 5818 5819 5819 5820 5822 5823 5824 5825 5827 5828 5828 5828 5829 5829 5829 5830 5830 5830 5831 5831 5832 5832 5833 5834 5834 5835 5835 5836 5836 5837 5837 5838 5838 5838 5838 5838 5838 5838 5838 5838 5838 5838 5838 5837 5837 5838 5838 5838 5838 5838 5838 5839 5839 5838 5838 5839 5839 5839